Tracking 17887 objects as of 11-December-2016
HD Live streaming from Space Station
objects crossing your sky now

BREEZE-M DEB

Track BREEZE-M DEB now!
10-day predictions


NORAD ID: 36958
Int'l Code: 2006-006CQ
Perigee: 410.0 km
Apogee: 13,124.9 km
Inclination: 51.8 °
Period: 249.8 minutes
Semi major axis: 13138 km
RCS: 0.0224 m2 (small)
Launch date: February 28, 2006
Source: Commonwealth of Independent States (former USSR) (CIS)
Launch site: TYURATAM MISSILE AND SPACE COMPLEX (TTMTR)

Note: This is SATELLITE DEBRIS
Your satellite tracking list
Your tracking list is empty





NASA's NSSDC Master Catalog

Two Line Element Set (TLE):
1 36958U 06006CQ  16345.03943887  .00002806  00000-0  16592-2 0  9995
2 36958  51.7810 358.9065 4838820  56.0352 341.0744  5.76481775168845
Source of the keplerian elements: AFSPC